Weather Roundup
Issued by NWS

Home | Current Version | Previous Version | Graphics & Text | Print | Product List | Glossary Off
Versions: 1 2 3 4 5 6 7 8 9 10 11 12 13 14 15 16 17 18 19 20 21 22 23 24 25 26 27 28 29 30 31 32 33 34 35 36 37 38 39 40 41 42 43 44 45 46 47 48 49 50

000
NZUS93 KARX 280159
HRRWXR

CURRENT HOURLY OBSERVATIONS ACROSS
MUCH OF THE UPPER MISSISSIPPI VALLEY
NATIONAL WEATHER SERVICE LA CROSSE WI
900 PM CDT WED MAY 27 2015


...SOUTHEAST MINNESOTA...


CITY           SKY/WX    TMP DP  RH WIND       PRES   REMARKS
ROCHESTER      CLEAR     72  59  63 SW5       30.03R
ROCHESTER/MAYO FAIR      78  54  43 SW5       30.02S
WINONA         CLEAR     70  63  78 CALM      30.01R
AUSTIN         CLEAR     70  55  60 CALM      30.02R
ALBERT LEA     CLEAR     72  57  60 CALM      30.02R
DODGE CENTER   CLEAR     73  59  60 CALM      30.02S
PRESTON        CLEAR     72  57  59 S3        30.04R
OWATONNA       CLEAR     72  59  64 CALM      30.01R
FARIBAULT      PTCLDY    70  61  73 CALM      30.01R
$$

...ELSEWHERE IN MINNESOTA...


CITY           SKY/WX    TMP DP  RH WIND       PRES   REMARKS
MINNEAPOLIS    PTCLDY    79  51  37 CALM      29.98R
INTNL FALLS    CLEAR     65  45  48 NE3       30.00R
DULUTH         PTCLDY    73  47  39 NW5       29.98R
RED WING       CLEAR     68  63  83 CALM      29.98R
REDWOOD FALLS  PTCLDY    77  51  40 CALM      29.98R
MANKATO        PTCLDY    75  54  46 SE5       29.99S
WORTHINGTON    PTCLDY    73  48  40 SW7       30.02R
FAIRMONT       PTCLDY    73  54  49 S5        30.01R
$$

...SOUTHWEST WISCONSIN...


CITY           SKY/WX    TMP DP  RH WIND       PRES   REMARKS
LA CROSSE      CLEAR     72  60  66 S6        30.00R
PRAIRIE DU CHI CLEAR     71  59  65 CALM      30.03R
BOSCOBEL       CLEAR     67  63  87 CALM      30.04R
LONE ROCK      NOT AVBL
PLATTEVILLE    CLEAR     72  60  66 S5        30.06R
FORT MC COY    PTCLDY    70  59  67 CALM      30.03R
VIROQUA        FAIR      70  59  68 S6        30.05R
WIS DELLS      CLEAR     66  59  78 S3        30.04R
$$

...ELSEWHERE IN WISCONSIN...


CITY           SKY/WX    TMP DP  RH WIND       PRES   REMARKS
MILWAUKEE      PTCLDY    63  54  72 S3        30.07R
MADISON        PTCLDY    67  58  72 SW3       30.05R
GREEN BAY      CLEAR     70  61  73 SW5       30.01R
EAU CLAIRE     NOT AVBL
BLACK RVR FLS  FAIR      69  61  76 CALM      30.00R
MEDFORD        TSTM      59  56  88 S6        30.02F
WAUSAU         TSTM      61  56  83 E9        30.03R
WIS RAPIDS     CLOUDY    66  61  84 CALM      30.04R
MARSHFIELD     MOCLDY    70  58  65 MISG      30.06R THUNDER
RICE LAKE      PTCLDY    70  58  65 CALM      30.01R
$$

...NORTHEAST IOWA...


CITY           SKY/WX    TMP DP  RH WIND       PRES   REMARKS
DECORAH        CLEAR     72  61  68 S5        30.03R
MASON CITY     CLEAR     71  55  56 S6        30.04R
CHARLES CITY   CLEAR     72  61  68 S7        30.03S
OELWEIN        CLEAR     72  61  68 S6        30.05S
$$

...ELSEWHERE IN IOWA...


CITY           SKY/WX    TMP DP  RH WIND       PRES   REMARKS
DES MOINES     PTCLDY    75  58  55 S6        30.04S
IOWA CITY      CLEAR     70  60  70 CALM      30.07R
FORT DODGE     CLEAR     70  55  60 S5        30.04R
$$

...NORTHERN ILLINOIS...


CITY           SKY/WX    TMP DP  RH WIND       PRES   REMARKS
CHICAGO-OHARE  CLEAR     67  54  63 CALM      30.09R
CHICAGO-MIDWAY CLEAR     72  54  53 CALM      30.09R
MOLINE         CLEAR     68  59  73 CALM      30.06R
ROCKFORD       PTCLDY    66  57  72 SE3       30.09R
PEORIA         CLEAR     71  58  63 NE3       30.09R
$$

NOTE: "FAIR" INDICATES FEW OR NO CLOUDS BELOW 12,000 FEET WITH NO
SIGNIFICANT WEATHER AND/OR OBSTRUCTIONS TO VISIBILITY. WIND
SPEEDS ARE IN MILES-PER-HOUR.



USA.gov is the U.S. government's official web portal to all federal, state and local government web resources and services.